User: anonymous   Login
Location: Hamburg
(53.5554°N, 9.9941°E)
Time: 14:57:30
(UTC+02:00)
Language:

ISS - Orbit

View from above orbital plane
View from above orbital plane
View from above satellite
View from above satellite

Ground track
Ground track

The orbit data is extracted from the following two-line orbital elements,

1 25544U 98067A   18203.82570242  .00016717  00000-0  10270-3 0  9034
2 25544  51.6391 201.0865 0004443 346.0748  14.0281 15.54011537  4053
Epoch (UTC): 22 July 2018 19:49:00
Eccentricity: 0.0004443
inclination: 51.6391°
perigee height: 402 km
apogee height: 408 km
right ascension of ascending node: 201.0865°
argument of perigee: 346.0748°
revolutions per day: 15.54011537
mean anomaly at epoch: 14.0281°
orbit number at epoch: 405

The dashed part of the orbit path shows where the satellite is in the earth's shadow,  

DLR